Regional Weather Roundup
Issued by NWS Grand Forks, ND

Home | Current Version | Previous Version | Text Only | Print | Product List | Glossary On
Versions: 1 2 3 4 5 6 7 8 9 10 11 12 13 14 15 16 17 18 19 20 21 22 23 24 25 26 27 28 29 30 31 32 33 34 35 36 37 38 39 40 41 42 43 44 45 46 47 48 49 50
000
ASUS43 KFGF 200631
RWRFGF
PRAIRIE TO PINES  WEATHER ROUNDUP
NATIONAL WEATHER SERVICE EASTERN NORTH DAKOTA/GRAND FORKS ND
100 AM CDT SUN APR 20 2014

 **SATELLITE DATA USED TO AUGMENT SKY COVER AT AUTOMATED STATIONS**
 *****  WEATHER ACROSS EASTERN NORTH DAKOTA  *****

CITY           SKY/WX    TMP DP  RH WIND       PRES   REMARKS
GRAND FORKS    FAIR      35  31  85 NW5       30.01S
6HR MIN TEMP:  35; 6HR MAX TEMP:  56;

GRAND FRKS AFB FAIR      35  32  89 W5        30.02R
GRAND FRKS NWS   N/A     37 N/A N/A NW3         N/A
DEVILS LAKE    FAIR      32  27  80 SE6       29.98F
6HR MIN TEMP:  30; 6HR MAX TEMP:  52;

FARGO          FAIR      41  34  76 NE3       30.02R
WAHPETON ARPT  FAIR      43  34  70 N7        30.02R
$$

 ***** WEATHER ACROSS CENTRAL AND WESTERN NORTH DAKOTA  *****

CITY           SKY/WX    TMP DP  RH WIND       PRES   REMARKS
BISMARCK       CLEAR     39  32  76 NE5       29.99S
6HR MIN TEMP:  38; 6HR MAX TEMP:  63;

MINOT          FAIR      36  31  82 SE5       29.95F
6HR MIN TEMP:  34; 6HR MAX TEMP:  54;

JAMESTOWN      FAIR      33  31  92 CALM      30.00S
6HR MIN TEMP:  32; 6HR MAX TEMP:  60;

MINOT AFB      FAIR      32  32  99 S5        29.94F
GARRISON         N/A     36  31  82 E6        29.96S
WILLISTON      PTCLDY    32  28  85 CALM      29.92R
6HR MIN TEMP:  32; 6HR MAX TEMP:  59;

DICKINSON      CLEAR     34  24  67 S6        29.93F
6HR MIN TEMP:  34; 6HR MAX TEMP:  61;

HETTINGER      CLEAR     30  23  75 CALM      29.98S
6HR MIN TEMP:  28; 6HR MAX TEMP:  62;

$$

 *****  OTHER AIRPORT OBSERVATIONS IN OUR AREA  *****

CITY           SKY/WX    TMP DP  RH WIND       PRES   REMARKS
WALHALLA       FAIR      36  36 100 W5        30.00S
GRAFTON AIRPOR FAIR      32  32 100 W6        30.01R
VALLEY CITY AR FAIR      39  39 100 SE3       30.02R
CANDO          FAIR      32  30  93 CALM      29.98S
CAVALIER APRT  FAIR      36  30  80 NW3       30.00R
GWINNER        CLEAR     39  36  87 E5        30.03S
SHEYENNE NWR     N/A     43  36  77 E7        29.95S
ROLLA          FAIR      28  28 100 SW5       29.98S WCI  23
 ***** THE ABOVE OBSERVATIONS ARE NON NWS ARE NOT QUALITY
       CONTROLLED AND MAY MIS-REPORT RAIN FOR SNOW...
$$

  *****  WEATHER ACROSS NORTHERN MINNESOTA  *****

CITY           SKY/WX    TMP DP  RH WIND       PRES   REMARKS
FLAG ISLAND    FAIR      36  30  80 W7        29.96R
WARROAD        FAIR      36  32  87 W5        29.99R
ROSEAU         FAIR      37  30  75 W7        29.99R
HALLOCK        CLOUDY    36  32  87 SW3       30.00R
THF RVR FALLS  FAIR      39  32  75 NW6       30.02R
6HR MIN TEMP:  39; 6HR MAX TEMP:  55;

BAUDETTE       FAIR      39  34  82 W3        29.98R
6HR MIN TEMP:  39; 6HR MAX TEMP:  56;

WASKISH        FAIR      39  36  87 SW9       30.00R
CROOKSTON      FAIR      37  34  87 NW6       30.03R
$$
  *****  WEATHER ACROSS CENTRAL AND WEST MINNESOTA  *****

CITY           SKY/WX    TMP DP  RH WIND       PRES   REMARKS
FOSSTON        FAIR      34  30  86 S3        30.02S
BEMIDJI        FAIR      35  33  91 CALM      30.01R
PARK RAPIDS    FAIR      42  36  79 NW6       30.00R
6HR MIN TEMP:  40; 6HR MAX TEMP:  62;

ELBOW LAKE     FAIR      47  33  59 NE9       30.00S
6HR MIN TEMP:  46; 6HR MAX TEMP:  64;

WADENA         FAIR      41  30  65 NW3       30.01R
DETROIT LAKES  FAIR      43  37  81 CALM      30.03R
MOORHEAD       FAIR      39  37  93 N5        30.03R
FERGUS FALLS   FAIR      46  36  66 NE6       29.99R
MORRIS MN      FAIR      45  36  70 SW5       29.98S
STAPLES        FAIR      39  30  70 W7        30.01R
$$
  *****  WEATHER ELSEWHERE ACROSS MINNESOTA  *****

CITY           SKY/WX    TMP DP  RH WIND       PRES   REMARKS
DULUTH         FAIR      32  28  85 S3        29.99S
6HR MIN TEMP:  32; 6HR MAX TEMP:  41;

INTRNTL FALLS  FAIR      40  35  83 W6        29.96R
6HR MIN TEMP:  40; 6HR MAX TEMP:  60;

ELY            FAIR      36  34  93 CALM      29.97S
CLOQUET        FAIR      30  28  93 CALM      30.00S
WHEATON        FAIR      46  39  76 N7        30.03R
BRAINERD       FAIR      39  31  72 CALM      29.99S
6HR MIN TEMP:  39; 6HR MAX TEMP:  70;

HIBBING        FAIR      31  29  92 CALM      29.98R
6HR MIN TEMP:  31; 6HR MAX TEMP:  58;

ALEXANDRIA     FAIR      46  32  58 CALM      30.00S
6HR MIN TEMP:  45; 6HR MAX TEMP:  65;

SAINT CLOUD    FAIR      37  36  93 CALM      30.01S FOG
6HR MIN TEMP:  38; 6HR MAX TEMP:  59;

MINNEAPOLIS    LGT RAIN  51  50  96 CALM      30.02S FOG
6HR MIN TEMP:  50; 6HR MAX TEMP:  61; 6HR PCP:  0.11;

$$

  *****  WEATHER ACROSS SOUTH DAKOTA  *****

CITY           SKY/WX    TMP DP  RH WIND       PRES   REMARKS
SIOUX FALLS    CLOUDY    55  39  54 CALM      30.01S
6HR MIN TEMP:  55; 6HR MAX TEMP:  66;

BROOKINGS      NOT AVBL
WATERTOWN      FAIR      42  31  64 CALM      30.01S
6HR MIN TEMP:  40; 6HR MAX TEMP:  66;

HURON          PTCLDY    42  31  64 CALM      29.99F
6HR MIN TEMP:  41; 6HR MAX TEMP:  66;

SISSETON         N/A     44  35  70 NW12      30.01R
ABERDEEN       CLEAR     47  34  60 N14       30.00S
6HR MIN TEMP:  36; 6HR MAX TEMP:  68;

MITCHELL       CLEAR     48  33  56 CALM      30.00F
PIERRE         CLEAR     43  27  53 SE5       29.99S
6HR MIN TEMP:  40; 6HR MAX TEMP:  67;

MOBRIDGE       CLEAR     43  28  55 E6        29.96F
RAPID CITY     MOCLDY    44  27  51 CALM      29.98F
6HR MIN TEMP:  40; 6HR MAX TEMP:  62;

$$

  *****  SOME WEATHER IN NEARBY STATES *****

CITY           SKY/WX    TMP DP  RH WIND       PRES   REMARKS
GLASGOW MT     CLEAR     42  29  59 E13       29.84F
6HR MIN TEMP:  40; 6HR MAX TEMP:  62;

GREAT FALLS MT PTCLDY    45  20  36 SE7       29.79S
6HR MIN TEMP:  44; 6HR MAX TEMP:  64;

CHEYENNE WY    PTCLDY    49  40  71 SW17      30.07F
6HR MIN TEMP:  48; 6HR MAX TEMP:  60;

SCOTTSBLUFF NE CLEAR     48  34  58 E8        30.02R
6HR MIN TEMP:  46; 6HR MAX TEMP:  66;

OMAHA NE       MOCLDY    67  44  43 S16       29.99F
6HR MIN TEMP:  67; 6HR MAX TEMP:  78;

DES MOINES IA  FAIR      63  44  50 S8        30.07S
6HR MIN TEMP:  63; 6HR MAX TEMP:  74;

DAVENPORT IA   FAIR      54  37  52 S9        30.17S
6HR MIN TEMP:  54; 6HR MAX TEMP:  70;

CHICAGO IL     FAIR      50  33  52 SE9       30.23S
6HR MIN TEMP:  50; 6HR MAX TEMP:  60;

EAU CLAIRE WI  CLOUDY    57  42  57 CALM      30.02S
6HR MIN TEMP:  57; 6HR MAX TEMP:  64; 6HR PCP: TRACE;

LA CROSSE WI   CLOUDY    62  39  42 S15       30.05F
6HR MIN TEMP:  62; 6HR MAX TEMP:  68;

$$

  *****  SOME NATIONAL WEATHER *****

CITY           SKY/WX    TMP DP  RH WIND       PRES   REMARKS
LA GUARDIA NY  FAIR      51  25  36 NE12      30.37R
6HR MIN TEMP:  51; 6HR MAX TEMP:  59;

RALEIGH NC     CLOUDY    52  40  63 N8        30.21S
6HR MIN TEMP:  52; 6HR MAX TEMP:  53; 6HR PCP: TRACE;

ATLANTA GA     MOCLDY    54  43  66 E15       30.18S
6HR MIN TEMP:  53; 6HR MAX TEMP:  58;

NEW ORLEANS LA FAIR      64  57  78 NE3       30.11S
6HR MIN TEMP:  64; 6HR MAX TEMP:  74;

OKLAHOMA CITY  MOCLDY    60  50  69 S10       30.09S
6HR MIN TEMP:  60; 6HR MAX TEMP:  74;

ALBUQUERQUE NM LGT RAIN  52  45  77 SW5       30.14R
6HR MIN TEMP:  50; 6HR MAX TEMP:  60; 6HR PCP:  0.01;

SALT LAKE CITY PTCLDY    56  36  47 S8        30.00R
6HR MIN TEMP:  56; 6HR MAX TEMP:  70;

LOS ANGELES CA CLEAR     61  55  81 W3        30.05R
6HR MIN TEMP:  60; 6HR MAX TEMP:  65;




USA.gov is the U.S. government's official web portal to all federal, state and local government web resources and services.